Location: T�bingen+AIT
(48.5342°N, 9.0700°E)
Time: 20:28:28
(UTC+02:00)

USA 267 - Pass Details

Date: 14 September 2017
Orbit: 1100 x 1108 km, 123.0° (Epoch: 18 September)

Event Time Altitude Azimuth Distance (km) Brightness Sun altitude
Exits shadow 22:38:31 63° 102° (ESE) 1,218 3.2 -27.7°
Maximum altitude 22:39:40 81° 30° (NNE) 1,119 3.2 -27.9°
Drops below altitude 10° 22:46:13 10° 305° (NW) 2,967 6.4 -28.6°
Sets 22:48:42 0° 305° (NW) 3,928 7.3 -28.9°
